[[{"header":{"parameterUnit":"m.s-1","parameterCategory":1,"la1":30.2991,"la2":30.254,"lo1":-89.0895,"lo2":-89.0444,"dy":0.0017,"dx":0.0017,"nx":28,"ny":28,"refTime":"2025-12-01T03:00:00:Z","depth":0,"parameterNumber":2,"parameterNumberName":"U-component_of_WINDS"},"data":[0,0,0,0,0,0,0,0,0,0,0,0,0,0,0,0,0,0,0,0,0,0,0,0,0,0,0,0,0,0,0,0,0,0,0,0,0,0,0,0,0,0,0,0,0,0,0,0,0,0,0,0,0,0,0,0,0,0,-3.4679,-3.4679,0,-3.4703,-3.4703,-3.4703,-3.4596,-3.4592,-3.4589,-3.4586,-3.4615,-3.4619,-3.4622,0,0,0,0,0,0,0,0,0,0,0,0,0,-3.4545,-3.4548,-3.4679,-3.4679,-3.468,-3.4703,-3.4703,-3.4703,-3.4596,-3.4592,-3.4589,-3.4585,-3.4614,-3.4618,-3.4623,0,0,0,0,0,0,0,0,0,0,0,0,0,-3.4589,-3.4549,-3.4679,-3.4629,-3.4624,-3.4703,-3.4703,-3.4703,-3.4597,-3.4592,-3.4588,-3.4583,-3.4612,-3.4618,-3.4623,-3.4752,0,0,-3.464,-3.4642,0,0,0,0,0,0,0,0,-3.4587,-3.4594,-3.4636,-3.4632,-3.4628,-3.4641,-3.4666,-3.472,-3.4598,-3.4608,-3.4586,-3.4581,-3.4628,-3.4632,-3.4647,-3.4753,-3.4754,-3.4641,-3.4644,-3.4646,-3.4648,0,0,0,0,0,0,0,-3.4584,-3.4593,-3.4688,-3.4637,-3.4632,-3.4606,-3.4608,-3.4676,-3.4644,-3.4606,-3.4599,-3.4603,-3.4625,-3.4642,-3.4647,-3.4755,-3.464,-3.4645,-3.4649,-3.4651,-3.497,-3.4975,0,0,0,0,0,0,-3.4587,-3.4591,-3.4688,-3.4689,-3.4595,-3.4613,-3.4614,-3.4642,-3.4643,-3.4639,-3.4607,-3.4598,-3.4635,-3.464,-3.4647,-3.4799,-3.4646,-3.4651,-3.4655,-3.4965,-3.4971,-3.4977,0,0,0,0,0,0,-3.4585,-3.4597,-3.4687,-3.4638,-3.4647,-3.462,-3.4652,-3.4645,-3.4661,-3.4643,-3.4637,-3.463,-3.4631,-3.4639,-3.4727,-3.4799,-3.4654,-3.4659,-3.4959,-3.4967,-3.4974,-3.5105,0,0,0,0,0,0,-3.4581,-3.4596,-3.4644,-3.464,-3.465,-3.4765,-3.4657,-3.4649,-3.4671,-3.4659,-3.4663,-3.4659,-3.4628,-3.4719,-3.4732,-3.4804,-3.4663,-3.4952,-3.4962,-3.4972,-3.5094,-3.5116,-3.5135,0,0,0,0,0,-3.4577,-3.4681,-3.4647,-3.4659,-3.4709,-3.4769,-3.4776,-3.4736,-3.4677,-3.4726,-3.4714,-3.4659,-3.4789,-3.4729,-3.4743,-3.4817,-3.4948,-3.496,-3.4971,-3.5085,-3.5112,-3.5134,0,0,0,0,0,0,-3.4695,-3.4679,-3.4642,-3.4747,-3.476,-3.4751,-3.4811,-3.4766,-3.4797,-3.4785,-3.4736,-3.4738,-3.4835,-3.4834,-3.4768,-3.4943,-3.4858,-3.4873,-3.494,-3.4965,-3.4985,-3.4984,-3.4668,0,0,0,0,0,-3.4733,-3.4782,-3.4766,-3.486,-3.4869,-3.4839,-3.4864,-3.4832,-3.4845,-3.485,-3.4844,-3.486,-3.4904,-3.4934,-3.4974,-3.5093,-3.5093,-3.5151,-3.5171,-3.5188,-3.5202,-3.5267,-3.5293,-3.5015,-3.5015,-3.5015,0,0,-3.4813,-3.481,-3.4844,-3.4884,-3.4891,-3.4944,-3.4845,-3.4905,-3.4944,-3.4859,-3.4942,-3.4939,-3.4952,-3.5057,-3.5102,-3.506,-3.5279,-3.5203,-3.5217,-3.5222,-3.5282,-3.5308,-3.5332,-3.5023,-3.5021,-3.502,0,0,-3.4986,-3.4988,-3.5068,-3.5076,-3.5087,-3.5067,-3.5086,-3.5084,-3.5078,-3.5159,-3.5097,-3.5144,-3.5221,-3.5234,-3.525,-3.5429,-3.5381,-3.5443,-3.5551,-3.5615,-3.5637,-3.5656,-3.5722,-3.5746,-3.5457,-3.5457,-3.5457,0,-3.5085,-3.5161,-3.5115,-3.5179,-3.52,-3.5124,-3.5205,-3.5216,-3.524,-3.5256,-3.5207,-3.5303,-3.5307,-3.5414,-3.5457,-3.5473,-3.5495,-3.5443,-3.5637,-3.5656,-3.5673,-3.5736,-3.576,-3.5465,-3.5464,-3.5463,-3.5463,0,-3.5282,-3.5337,-3.54,-3.5424,-3.5451,-3.5524,-3.549,-3.5523,-3.5489,-3.5475,-3.556,-3.5561,-3.5601,-3.5623,-3.5591,-3.5727,-3.57,-3.5645,-3.5559,-3.5708,-3.5766,-3.5789,-3.5476,-3.5473,-3.5471,-3.5469,0,0,-3.5532,-3.5529,-3.5553,-3.5564,-3.557,-3.5612,-3.5682,-3.5719,-3.575,-3.5769,-3.5828,-3.5894,-3.5844,-3.5863,-3.5831,-3.5887,-3.6031,-3.5825,-3.5825,-3.5865,-3.6183,-3.6226,-3.6254,-3.5998,-3.6002,-3.6006,-3.6182,0,-3.5703,-3.5821,-3.5782,-3.5903,-3.5953,-3.5882,-3.5943,-3.5955,-3.5943,-3.5986,-3.5973,-3.6022,-3.595,-3.5961,-3.6013,-3.6003,-3.6095,-3.5989,-3.6055,-3.6058,-3.6055,-3.6284,-3.6329,-3.6496,-3.6204,-3.6208,-3.6211,0,-3.5918,-3.5945,-3.6071,-3.607,-3.609,-3.6146,-3.6177,-3.6218,-3.623,-3.6218,-3.6239,-3.6196,-3.6267,-3.6179,-3.6277,-3.6206,-3.623,-3.623,-3.6235,-3.6241,-3.6145,-3.6299,-3.6548,-3.6574,-3.6246,-3.6243,-3.624,0,-3.609,-3.6158,-3.6242,-3.6253,-3.6254,-3.6295,-3.6297,-3.6304,-3.633,-3.6358,-3.6374,-3.641,-3.6431,-3.6461,-3.643,-3.6368,-3.6533,-3.6442,-3.6527,-3.6528,-3.6566,-3.6564,-3.6825,-3.6579,-3.6578,-3.6578,-3.6577,0,-3.6287,-3.6367,-3.632,-3.6372,-3.6461,-3.6415,-3.6504,-3.6498,-3.6506,-3.6557,-3.6497,-3.6547,-3.6502,-3.6548,-3.6524,-3.661,-3.6619,-3.6612,-3.6606,-3.6619,-3.662,-3.6636,-3.6624,-3.6584,-3.6583,-3.6582,-3.658,0,-3.6495,-3.6466,-3.6553,-3.6546,-3.6546,-3.6612,-3.6607,-3.6656,-3.6639,-3.6705,-3.6718,-3.6693,-3.6744,-3.6715,-3.6768,-3.6752,-3.6864,-3.684,-3.686,-3.6854,-3.6941,-3.6934,-3.7223,-3.7259,-3.6988,-3.699,-3.6992,0,-3.6623,-3.6683,-3.6682,-3.6711,-3.6718,-3.6766,-3.6791,-3.6748,-3.6778,-3.6797,-3.6844,-3.689,-3.6924,-3.701,-3.6997,-3.7038,-3.7016,-3.7114,-3.7022,-3.7034,-3.702,-3.7018,-3.7025,-3.7134,-3.7137,-3.7139,-3.7142,0,-3.6854,-3.6837,-3.6875,-3.6909,-3.6941,-3.6966,-3.6985,-3.7013,-3.6971,-3.7007,-3.7058,-3.7085,-3.7138,-3.7186,-3.722,-3.7224,-3.7178,-3.717,-3.7192,-3.7208,-3.7218,-3.7216,-3.6913,-3.7165,-3.7162,-3.7161,-3.7159,-3.7158,-3.7028,-3.7078,-3.7086,-3.7131,-3.7141,-3.7161,-3.7207,-3.7196,-3.7238,-3.7277,-3.725,-3.7311,-3.7323,-3.7364,-3.7375,-3.7423,-3.7384,-3.7415,-3.7423,-3.7433,-3.7445,-3.7208,-3.7429,-3.7428,-3.7427,-3.7427,-3.7426,0,-3.7258,-3.7259,-3.73,-3.733,-3.7366,-3.7316,-3.7336,-3.737,-3.7424,-3.7438,-3.7473,-3.7533,-3.7578,-3.757,-3.7611,-3.7652,-3.7632,-3.7664,-3.7662,-3.7664,-3.7477,-3.7455,-3.768,-3.768,-3.768,-3.768,-3.768,-3.768,-3.7382,-3.7465,-3.7449,-3.7538,-3.7539,-3.7597,-3.7613,-3.7632,-3.7644,-3.7713,-3.775,-3.7743,-3.7749,-3.779,-3.7831,-3.7827,-3.7846,-3.7888,-3.7877,-3.7702,-3.7677,-3.7653,-3.7632,-3.7892,-3.7892,-3.806,-3.8062,-3.8063]},{"header":{"parameterUnit":"m.s-1","parameterCategory":1,"la1":30.2991,"la2":30.254,"lo1":-89.0895,"lo2":-89.0444,"dy":0.0017,"dx":0.0017,"nx":28,"ny":28,"refTime":"2025-12-01T03:00:00:Z","depth":0,"parameterNumber":3,"parameterNumberName":"V-component_of_WINDS"},"data":[0,0,0,0,0,0,0,0,0,0,0,0,0,0,0,0,0,0,0,0,0,0,0,0,0,0,0,0,0,0,0,0,0,0,0,0,0,0,0,0,0,0,0,0,0,0,0,0,0,0,0,0,0,0,0,0,0,0,-2.5304,-2.5304,0,-2.5315,-2.5316,-2.5316,-2.5292,-2.5291,-2.5291,-2.529,-2.53,-2.5301,-2.5302,0,0,0,0,0,0,0,0,0,0,0,0,0,-2.526,-2.5261,-2.5304,-2.5304,-2.5304,-2.5315,-2.5316,-2.5316,-2.5292,-2.5291,-2.529,-2.5289,-2.53,-2.5301,-2.5302,0,0,0,0,0,0,0,0,0,0,0,0,0,-2.5276,-2.5261,-2.5304,-2.5294,-2.5293,-2.5315,-2.5316,-2.5316,-2.5292,-2.5291,-2.529,-2.5289,-2.53,-2.5301,-2.5303,-2.5335,0,0,-2.5307,-2.5308,0,0,0,0,0,0,0,0,-2.5275,-2.5278,-2.5295,-2.5295,-2.5294,-2.5301,-2.5304,-2.5322,-2.5293,-2.5293,-2.529,-2.5288,-2.5301,-2.5303,-2.5307,-2.5335,-2.5336,-2.5307,-2.5308,-2.5309,-2.5309,0,0,0,0,0,0,0,-2.5274,-2.5277,-2.5309,-2.5296,-2.5295,-2.5288,-2.5289,-2.5307,-2.5303,-2.5293,-2.5291,-2.5293,-2.5301,-2.5306,-2.5307,-2.5336,-2.5307,-2.5309,-2.5309,-2.531,-2.539,-2.5391,0,0,0,0,0,0,-2.5274,-2.5276,-2.5308,-2.5309,-2.5282,-2.529,-2.5291,-2.53,-2.5303,-2.5302,-2.5294,-2.5291,-2.5304,-2.5306,-2.5308,-2.5346,-2.5309,-2.531,-2.5311,-2.5389,-2.539,-2.5392,0,0,0,0,0,0,-2.5274,-2.5278,-2.5308,-2.5292,-2.5296,-2.5292,-2.5302,-2.5301,-2.5306,-2.5304,-2.5303,-2.53,-2.5303,-2.5306,-2.5328,-2.5346,-2.5311,-2.5312,-2.5387,-2.5389,-2.5391,-2.5422,0,0,0,0,0,0,-2.5272,-2.5277,-2.529,-2.5293,-2.5296,-2.5329,-2.5303,-2.5302,-2.5309,-2.5306,-2.5309,-2.5309,-2.5302,-2.5326,-2.533,-2.5347,-2.5313,-2.5386,-2.5388,-2.539,-2.5419,-2.5424,-2.5429,0,0,0,0,0,-2.5271,-2.5298,-2.5291,-2.5295,-2.5312,-2.533,-2.5332,-2.5324,-2.531,-2.5323,-2.5321,-2.5309,-2.5343,-2.5329,-2.5332,-2.535,-2.5385,-2.5388,-2.539,-2.5417,-2.5423,-2.5429,0,0,0,0,0,0,-2.5298,-2.5298,-2.529,-2.5319,-2.5325,-2.5326,-2.5341,-2.5331,-2.5341,-2.5338,-2.5328,-2.5328,-2.5353,-2.5354,-2.5338,-2.5381,-2.5361,-2.5365,-2.538,-2.5386,-2.5391,-2.5391,-2.5315,0,0,0,0,0,-2.5307,-2.5322,-2.5321,-2.5347,-2.535,-2.5345,-2.5352,-2.5346,-2.5351,-2.5353,-2.5353,-2.5358,-2.537,-2.5378,-2.5389,-2.5419,-2.5419,-2.5433,-2.5438,-2.5442,-2.5445,-2.5461,-2.5467,-2.5401,-2.5401,-2.5401,0,0,-2.5327,-2.5329,-2.5338,-2.5352,-2.5356,-2.537,-2.5347,-2.5364,-2.5375,-2.5355,-2.5377,-2.5377,-2.5382,-2.5408,-2.542,-2.541,-2.5463,-2.5445,-2.5448,-2.545,-2.5464,-2.547,-2.5476,-2.5403,-2.5402,-2.5402,0,0,-2.5369,-2.5373,-2.5394,-2.5398,-2.5403,-2.54,-2.5405,-2.5407,-2.5407,-2.5428,-2.5414,-2.5426,-2.5447,-2.5451,-2.5455,-2.5498,-2.5487,-2.5502,-2.5528,-2.5543,-2.5548,-2.5553,-2.5568,-2.5574,-2.5505,-2.5505,-2.5506,0,-2.5393,-2.5415,-2.5406,-2.5424,-2.543,-2.5413,-2.5435,-2.5438,-2.5447,-2.5451,-2.544,-2.5465,-2.5467,-2.5494,-2.5504,-2.5509,-2.5514,-2.5502,-2.5548,-2.5553,-2.5557,-2.5571,-2.5577,-2.5507,-2.5507,-2.5507,-2.5507,0,-2.5443,-2.5459,-2.5475,-2.5484,-2.5492,-2.5512,-2.5505,-2.5514,-2.5507,-2.5504,-2.5526,-2.5527,-2.5538,-2.5544,-2.5537,-2.5569,-2.5563,-2.555,-2.553,-2.5565,-2.5579,-2.5584,-2.551,-2.5509,-2.5509,-2.5508,0,0,-2.5505,-2.5508,-2.5514,-2.5518,-2.5522,-2.5533,-2.5551,-2.5562,-2.557,-2.5576,-2.5591,-2.5608,-2.5596,-2.5601,-2.5594,-2.5607,-2.5641,-2.5593,-2.5593,-2.5602,-2.5677,-2.5688,-2.5694,-2.5634,-2.5635,-2.5635,-2.5677,0,-2.5548,-2.5579,-2.5571,-2.5603,-2.5617,-2.56,-2.5616,-2.562,-2.5618,-2.5629,-2.5626,-2.5638,-2.5621,-2.5624,-2.5637,-2.5635,-2.5656,-2.5631,-2.5647,-2.5648,-2.5647,-2.5701,-2.5712,-2.5752,-2.5682,-2.5683,-2.5684,0,-2.5602,-2.561,-2.5643,-2.5644,-2.565,-2.5664,-2.5673,-2.5684,-2.5687,-2.5685,-2.569,-2.568,-2.5697,-2.5677,-2.57,-2.5683,-2.5689,-2.5689,-2.569,-2.5692,-2.5669,-2.5705,-2.5764,-2.577,-2.5692,-2.5691,-2.5691,0,-2.5644,-2.5663,-2.5685,-2.5688,-2.569,-2.5701,-2.5702,-2.5705,-2.5711,-2.5718,-2.5722,-2.5732,-2.5737,-2.5744,-2.5736,-2.5722,-2.5761,-2.5739,-2.5759,-2.5759,-2.5769,-2.5768,-2.583,-2.5771,-2.5771,-2.5771,-2.5771,0,-2.5693,-2.5714,-2.5704,-2.5717,-2.574,-2.573,-2.5752,-2.5751,-2.5753,-2.5766,-2.5752,-2.5764,-2.5753,-2.5764,-2.5759,-2.5779,-2.5781,-2.5779,-2.5778,-2.5781,-2.5781,-2.5785,-2.5782,-2.5773,-2.5772,-2.5772,-2.5772,0,-2.5744,-2.5738,-2.5761,-2.5761,-2.5761,-2.5777,-2.5777,-2.5789,-2.5785,-2.5802,-2.5805,-2.5799,-2.5811,-2.5804,-2.5817,-2.5813,-2.5839,-2.5833,-2.5838,-2.5837,-2.5857,-2.5855,-2.5924,-2.5932,-2.5868,-2.5869,-2.5869,0,-2.5776,-2.5791,-2.5792,-2.58,-2.5802,-2.5815,-2.5821,-2.5811,-2.5819,-2.5824,-2.5835,-2.5846,-2.5854,-2.5874,-2.5871,-2.588,-2.5875,-2.5898,-2.5877,-2.5879,-2.5876,-2.5875,-2.5877,-2.5903,-2.5904,-2.5904,-2.5905,0,-2.5833,-2.5829,-2.584,-2.5849,-2.5857,-2.5863,-2.5869,-2.5875,-2.5866,-2.5874,-2.5887,-2.5893,-2.5906,-2.5917,-2.5924,-2.5925,-2.5913,-2.5912,-2.5917,-2.5921,-2.5923,-2.5922,-2.5851,-2.591,-2.591,-2.5909,-2.5909,-2.5909,-2.5876,-2.5889,-2.5891,-2.5903,-2.5906,-2.5911,-2.5922,-2.592,-2.593,-2.594,-2.5933,-2.5947,-2.595,-2.5959,-2.5961,-2.5972,-2.5962,-2.597,-2.5972,-2.5974,-2.5977,-2.5921,-2.5973,-2.5973,-2.5973,-2.5973,-2.5972,0,-2.5933,-2.5933,-2.5944,-2.5952,-2.5961,-2.5949,-2.5954,-2.5962,-2.5975,-2.5978,-2.5986,-2.6,-2.6011,-2.6008,-2.6017,-2.6026,-2.6021,-2.6029,-2.6028,-2.6029,-2.5985,-2.5979,-2.6033,-2.6033,-2.6033,-2.6033,-2.6033,-2.6033,-2.5964,-2.5985,-2.5981,-2.6003,-2.6003,-2.6017,-2.6021,-2.6026,-2.6028,-2.6044,-2.6053,-2.6051,-2.6051,-2.606,-2.6069,-2.6068,-2.6072,-2.6082,-2.6079,-2.6038,-2.6032,-2.6026,-2.6021,-2.6083,-2.6083,-2.6122,-2.6123,-2.6123]}]]